Regional Weather Roundup
Issued by NWS

Home | Current Version | Previous Version | Graphics & Text | Print | Product List | Glossary On
Versions: 1 2 3 4 5 6 7 8 9 10 11 12 13 14 15 16 17 18 19 20 21 22 23 24 25 26 27 28 29 30 31 32 33 34 35 36 37 38 39 40 41 42 43 44 45 46 47 48 49 50
000
ASUS43 KFSD 230710
RWRSD

WEATHER ROUNDUP FOR SOUTH DAKOTA
NATIONAL WEATHER SERVICE SIOUX FALLS SD
200 AM CDT WED AUG 23 2017

NOTE: "FAIR" INDICATES FEW OR NO CLOUDS BELOW 12,000 FEET WITH NO
SIGNIFICANT WEATHER AND/OR OBSTRUCTIONS TO VISIBILITY.


SDZ001>005-009-010-012>017-230800-
NORTHWEST AND NORTH CENTRAL SOUTH DAKOTA

CITY           SKY/WX    TMP DP  RH WIND       PRES   REMARKS
BUFFALO          N/A     58  46  64 E9        30.05F
FAITH            N/A     62  49  62 E15       30.09F
MOBRIDGE       CLEAR     56  47  71 E7        30.11S
$$

SDZ012>016-024>037-041>051-057-063-072>074-230800-
SOUTHWEST AND SOUTH CENTRAL SOUTH DAKOTA

CITY           SKY/WX    TMP DP  RH WIND       PRES   REMARKS
RAPID CTY ARPT CLEAR     58  47  66 SE3       30.08S
PIERRE         CLEAR     57  50  77 E8        30.10F
CUSTER         CLEAR     57  45  64 VRB6      30.21F
ELLSWORTH AFB  CLEAR     63  47  55 SW3       30.07F
PHILIP         CLEAR     58  51  78 E9        30.08S
PINE RIDGE     CLEAR     69  51  52 S20G32    30.09F
SPEARFISH      FAIR      63  46  55 W3        30.11S
WINNER         FAIR      61  54  77 SE9       30.13S
$$

SDZ004>011-016>023-039-040-230800-
NORTHEAST SOUTH DAKOTA

CITY           SKY/WX    TMP DP  RH WIND       PRES   REMARKS
ABERDEEN       CLEAR     48  47  96 CALM      30.13S
WATERTOWN      CLEAR     51  49  92 S3        30.13F
BROOKINGS      CLEAR     53  51  93 S3        30.15S
SISSETON         N/A     51  47  86 CALM      30.10S
$$

SDZ017-020-022-023-036>040-048>070-230800-
SOUTHEAST SOUTH DAKOTA

CITY           SKY/WX    TMP DP  RH WIND       PRES   REMARKS
SIOUX FALLS    CLEAR     54  53  97 CALM      30.15S
HURON          CLEAR     52  50  93 CALM      30.13F
CHAMBERLAIN    CLEAR     57  53  85 E6        30.14S
MITCHELL       CLEAR     57  51  80 CALM      30.14F
YANKTON        CLEAR     58  55  90 CALM      30.16S
$$

ABBREVIATIONS USED IN REMARKS
   TC - TEMPERATURE IN CELSIUS
  WCI - WIND CHILL INDEX
   HX - HEAT INDEX
  VSB - VISIBILITY




USA.gov is the U.S. government's official web portal to all federal, state and local government web resources and services.